Skip Page Navigation
NASA JPL Caltech
NASA Logo - Jet Propulsion Laboratory + View the NASA Portal
+ Center for Near-Earth Object Studies
JPL Home Earth Solar System Stars & Galaxies Technology
JPL Solar System Dynamics
BODIES ORBITS EPHEMERIDES TOOLS PHYSICAL DATA DISCOVERY FAQ SITE MAP
IMPORTANT: The SSD Announcement email list is now available. Major changes are coming in the near future, including possible hostname and/or URL changes. To be notified of such changes, subscribe to this email list.

Please visit this page for more details.


JPL Small-Body Database Browser
Search: [ help ]  
379599 (2011 CY37)
Classification: Main-belt Asteroid          SPK-ID: 2379599
Ephemeris | Orbit Diagram | Orbital Elements | Mission Design | Physical Parameters | Discovery Circumstances ]

[ show orbit diagram ]
Orbital Elements at Epoch 2459000.5 (2020-May-31.0) TDB
Reference: JPL 14 (heliocentric ecliptic J2000)
 Element Value Uncertainty (1-sigma)   Units 
e .1176777085838246 4.8382e-08  
a 2.3929673612048 2.6264e-08 au
q 2.111368445422338 1.0806e-07 au
i 2.30561894238267 6.9781e-06 deg
node 74.14088603047212 0.00015559 deg
peri 60.72853280566389 0.00016354 deg
M 185.9050117300149 5.2001e-05 deg
tp 2459654.363896046828
(2022-Mar-15.86389605)
0.00020262 TDB
period 1352.083738400417
3.70
2.2259e-05
6.094e-08
d
yr
n .2662556983533417 4.3834e-09 deg/d
Q 2.674566276987262 2.9354e-08 au
  Orbit Determination Parameters
   # obs. used (total)      163  
   data-arc span      4585 days (12.55 yr)  
   first obs. used      2006-11-20  
   last obs. used      2019-06-10  
   planetary ephem.      DE431  
   SB-pert. ephem.      SB431-N16  
   condition code      0  
   norm. resid. RMS      .59349  
   source      ORB  
   producer      Otto Matic  
   solution date      2019-Sep-24 06:57:30  

Additional Information
 Earth MOID = 1.12656 au 
 Jupiter MOID = 2.34969 au 
 T_jup = 3.520 
[ show covariance matrix ]

Ephemeris | Orbit Diagram | Orbital Elements | Mission Design | Physical Parameters | Discovery Circumstances ]

Physical Parameter Table
Parameter Symbol Value Units Sigma Reference Notes
absolute magnitude H 17.6   n/a MPO434348  

379599 (2011 CY37)          Discovered 2006-Nov-20 by Spacewatch at Kitt Peak
Reference: Last Updated: 2013-11-20

Alternate Designations
 2011 CY37 = 2006 YO14 
Ephemeris | Orbit Diagram | Orbital Elements | Mission Design | Physical Parameters | Discovery Circumstances ]
ABOUT SSD CREDITS/AWARDS PRIVACY/COPYRIGHT GLOSSARY LINKS
FirstGov 2020-Feb-26 05:33 UT
(server date/time)  
NASA Home Page
Site Manager:   Ryan S. Park
Webmaster  Alan B. Chamberlin